This is the latest recevied weather packets stored in our database for station/object K2MRS. If no packets are shown the sender has not sent any weather packets the latest 1 day(s).
| Time | Temp. | Humidity | Pressure | Rain* | Wind** | Luminosity | Snow |
|---|---|---|---|---|---|---|---|
| 1778020928 | 16.11° C | 78% | 1016.1 hPa | 0 mm | 0 m/s | 236 W/m² | - |
| 1778020629 | 16.11° C | 77% | 1016.1 hPa | 0 mm | 0 m/s | 297 W/m² | - |
| 1778020328 | 16.11° C | 77% | 1016.1 hPa | 0 mm | 0 m/s | 271 W/m² | - |
| 1778020158 | 16.11° C | 78% | 1016.1 hPa | 0 mm | 0 m/s | 279 W/m² | - |
| 1778019729 | 16.11° C | 76% | 1016.3 hPa | 0 mm | 0 m/s | 234 W/m² | - |
| 1778019428 | 16.67° C | 77% | 1016.2 hPa | 0 mm | 0 m/s | 220 W/m² | - |
| 1778019124 | 16.11° C | 77% | 1016.2 hPa | 0 mm | 0 m/s | 260 W/m² | - |
| 1778018955 | 16.11° C | 77% | 1016.2 hPa | 0 mm | 0 m/s | 279 W/m² | - |
| 1778018524 | 16.11° C | 77% | 1016.3 hPa | 0 mm | 0 m/s | 283 W/m² | - |
| 1778018356 | 16.11° C | 76% | 1016.3 hPa | 0 mm | 0 m/s | 295 W/m² | - |
| 1778017922 | 16.67° C | 76% | 1016.3 hPa | 0 mm | 0 m/s | 330 W/m² | - |
| 1778017623 | 16.67° C | 76% | 1016.4 hPa | 0 mm | 0 m/s | 332 W/m² | - |
| 1778017322 | 16.67° C | 75% | 1016.3 hPa | 0 mm | 0 m/s | 348 W/m² | - |
| 1778017022 | 16.67° C | 76% | 1016.3 hPa | 0 mm | 0 m/s | 425 W/m² | - |
| 1778016722 | 16.67° C | 75% | 1016.4 hPa | 0 mm | 0 m/s | 496 W/m² | - |
| 1778016421 | 16.67° C | 78% | 1016.4 hPa | 0 mm | 0 m/s | 896 W/m² | - |
| 1778016121 | 16.11° C | 79% | 1016.4 hPa | 0 mm | 0 m/s | 438 W/m² | - |
| 1778015821 | 15.56° C | 77% | 1016.6 hPa | 0 mm | 0 m/s | 374 W/m² | - |
| 1778015521 | 16.11° C | 77% | 1016.6 hPa | 0 mm | 0 m/s | 345 W/m² | - |
| 1778015219 | 16.11° C | 77% | 1016.4 hPa | 0 mm | 0 m/s | 285 W/m² | - |
| 1778014920 | 16.11° C | 77% | 1016.4 hPa | 0 mm | 0 m/s | 234 W/m² | - |
| 1778014746 | 16.11° C | 77% | 1016.6 hPa | 0 mm | 0 m/s | 267 W/m² | - |
| 1778014444 | 16.67° C | 76% | 1016.6 hPa | 0 mm | 0 m/s | 336 W/m² | - |
| 1778014018 | 16.67° C | 76% | 1016.6 hPa | 0 mm | 0 m/s | 399 W/m² | - |
| 1778013717 | 16.67° C | 75% | 1016.6 hPa | 0 mm | 0 m/s | 411 W/m² | - |
* Rain latest hour (hover to see other rain measurements)
** Current wind speed in m/s (hover to see current wind gust speed)